Weather Roundup
Issued by NWS Springfield, MO

Home | Current Version | Previous Version | Text Only | Print | Product List | Glossary On
Versions: 1 2 3 4 5 6 7 8 9 10 11 12 13 14 15 16 17 18 19 20 21 22 23 24 25 26 27 28 29 30 31 32 33 34 35 36 37 38 39 40 41 42 43 44 45 46 47 48 49 50
315
NZUS99 KSGF 050957
HRRSGF

HOURLY WEATHER
NATIONAL WEATHER SERVICE SPRINGFIELD MO
500 AM CDT THU MAY 05 2016

......SGF CWA......

CITY           SKY/WX    TMP DP  RH WIND       PRES   REMARKS
SPRINGFIELD    CLEAR     44  37  76 CALM      29.98S
JOPLIN         CLEAR     43  41  93 SW3       30.02S
WEST PLAINS    CLEAR     47  36  65 W7        29.95S
ROLLA          CLEAR     45  37  73 NW5       29.92S

......SURROUNDING SGF CWA......

CITY           SKY/WX    TMP DP  RH WIND       PRES   REMARKS
CHANUTE        CLEAR     43  40  89 NW3       30.03S
PARSONS        CLEAR     43  42  97 CALM      30.04S
COFFEYVILLE    CLEAR     47  43  86 NW3       30.03R
EMPORIA        CLEAR     46  41  82 W5        30.04S
HARRISON AR    CLEAR     48  39  71 W5        29.99R

......KANSAS AND MISSOURI......

CITY           SKY/WX    TMP DP  RH WIND       PRES   REMARKS
KANSAS CTY INT PTCLDY    47  40  76 W8        30.01R
SEDALIA        CLEAR     50  39  66 NW7       29.99R
ST JOSEPH      CLEAR     43  41  93 CALM      30.02R
ST LOUIS       CLEAR     47  38  71 NW5       29.91R
WICHITA        CLEAR     50  40  68 NW6       30.06R
TOPEKA         CLEAR     48  42  80 CALM      30.03S
OLATHE         CLEAR     49  39  68 NW7       30.01S

......TENNESSEE......

CITY           SKY/WX    TMP DP  RH WIND       PRES   REMARKS
MEMPHIS        NOT AVBL
NASHVILLE      MOCLDY    45  41  86 CALM      29.81S

......ARKANSAS.......

CITY           SKY/WX    TMP DP  RH WIND       PRES   REMARKS
FAYETTEVILLE   CLEAR     39  39 100 S3        30.02R
FT SMITH       CLEAR     50  43  77 SW3       30.01R
LITTLE ROCK    CLEAR     56  42  59 NW5       29.96R

......OKLAHOMA.......

CITY           SKY/WX    TMP DP  RH WIND       PRES   REMARKS
TULSA          CLEAR     51  44  77 W3        30.02R
PONCA CITY     CLEAR     43  40  89 CALM      30.06R
MCALESTER      CLEAR     45  42  89 CALM      30.03R
OKLAHOMA CITY  CLEAR     52  43  71 NW5       30.06R

......IOWA............

CITY           SKY/WX    TMP DP  RH WIND       PRES   REMARKS
DES MOINES     NOT AVBL
QUAD CITIES    CLEAR     41  35  79 CALM      29.96R

......ILLINOIS........

CITY           SKY/WX    TMP DP  RH WIND       PRES   REMARKS
QUINCY         NOT AVBL
CHICAGO        MOCLDY    42  33  70 N15       29.89R




USA.gov is the U.S. government's official web portal to all federal, state and local government web resources and services.